Location: Radomski Observatory
(40.2854°N, 79.5145°W)
Time: 23:13:13
(UTC-04:00)

Daily predictions for brighter satellites

Satellite Brightness Start Highest point End
(mag) Time Altitude Azimuth Time Altitude Azimuth Time Altitude Azimuth
Cosmos 2333 Rocket 3.9 19:17:30 10° SW 19:22:47 37° WNW 19:28:07 10° N
CZ-4C R/B 3.8 19:21:45 10° WSW 19:26:42 36° NW 19:32:15 10° NNE
COSMOS 2441 4.4 19:23:08 10° SSE 19:28:00 87° ENE 19:32:51 10° NNW
CENTAUR R/B 3.7 19:25:29 10° SSE 19:29:36 19° ESE 19:33:58 10° ENE
ATLAS CENTAUR R/B 3.4 19:26:46 10° SSW 19:31:15 72° SE 19:45:15 10° NE
SKYMED 2 3.7 19:28:18 10° NNE 19:32:41 87° W 19:37:00 10° SSW
SJ-6B 3.2 19:28:59 10° SE 19:32:48 45° ENE 19:36:43 10° N
Cosmos 1408 Rocket 3.9 19:29:23 10° N 19:33:31 42° ENE 19:37:37 10° SSE
ATLAS 5 CENTAUR R/B 1.8 19:31:45 10° SSW 19:36:29 77° ESE 19:41:37 10° NE
NOSS 3-2 (C) 3.5 19:33:56 10° SSW 19:39:59 89° ESE 19:46:37 10° NE
Cosmos 2237 Rocket 4.2 19:35:59 10° WSW 19:40:59 31° WNW 19:46:00 10° N
Cosmos 192 4.4 19:36:29 10° SSW 19:41:26 89° ESE 19:46:26 10° NNE
Cosmos 1484 Rocket 3.2 19:39:47 10° S 19:43:35 66° W 19:47:30 10° NNW
SL-19 R/B 4.4 19:40:30 10° SSE 19:46:08 89° E 19:52:09 10° NNW
ALOS 3.5 19:42:57 10° ESE 19:46:32 22° ENE 19:50:08 10° NNE
Cosmos 1758 3.6 19:42:55 10° SSE 19:46:50 47° E 19:50:48 10° NNE
Helios 1A 3.6 19:46:45 10° SE 19:50:35 35° ENE 19:54:26 10° N
Spot 2 Rocket 3.8 19:46:05 10° SE 19:50:52 46° ENE 19:55:40 10° N
ISS -2.7 19:49:27 10° SSW 19:52:28 36° SE 19:54:44 15° ENE
Cosmos 1544 3.6 19:52:57 10° SSE 19:56:26 38° E 19:59:56 10° NNE
Cosmos 1269 Rocket 4.3 19:51:40 10° S 19:56:40 45° ESE 20:01:40 10° NNE
METEOR-M 4.1 19:53:53 10° SSE 19:59:09 63° ENE 20:04:28 10° N
Resurs 1-3 4.0 19:56:05 10° SE 20:00:10 40° ENE 20:04:17 10° N
SL-8 R/B 3.7 19:55:30 10° SW 20:00:14 66° SE 20:04:20 14° ENE
Meteor 1-21 Rocket 4.2 19:56:15 10° N 20:01:45 59° ENE 20:07:11 10° SSE
SL-16 R/B 3.4 19:57:01 10° SW 20:02:27 46° WNW 20:07:56 10° NNE
SAR-Lupe-4 4.2 19:59:14 10° S 20:02:45 59° W 20:06:18 10° NNW
Cosmos 1743 Rocket 3.9 19:59:17 10° N 20:03:31 42° ENE 20:07:41 10° SSE
Resurs 01 Rocket 1.6 20:01:24 10° SSE 20:05:46 61° ENE 20:10:11 10° N
HJ-1C 3.3 20:06:14 10° SSE 20:09:33 67° ENE 20:12:55 10° N
USA 215 3.3 20:07:54 10° NE 20:14:22 62° SE 20:20:49 10° SSW
FENGYUN 3A 4.0 20:10:14 10° SE 20:15:17 45° ENE 20:20:24 10° N
CZ-2D R/B 4.1 20:15:35 26° ESE 20:16:39 31° ENE 20:20:06 10° N
Meteor 2-12 Rocket 4.4 20:14:27 10° S 20:20:37 88° E 20:26:48 10° N
Meteor 1-28 Rocket 4.4 20:19:05 10° N 20:22:38 44° WNW 20:26:10 10° SW
FREGAT/IRIS 4.0 20:19:52 10° S 20:22:49 42° W 20:25:48 10° NNW
Helios 1B rocket 2.4 20:19:57 10° NNE 20:24:04 89° ENE 20:28:12 10° SSW
Nadezhda 4 Rocket 3.9 20:18:04 10° N 20:24:22 74° E 20:30:32 10° SSE
Abrixas 2.7 20:23:03 10° WSW 20:26:01 63° NNW 20:26:59 37° NE
H-2A R/B 3.1 20:28:07 37° ESE 20:28:52 42° ENE 20:32:33 10° N
GP-B 3.7 20:26:34 10° NNE 20:30:36 34° E 20:30:36 34° E
SeaSat 1 4.3 20:34:29 14° SSE 20:34:29 14° SSE 20:35:20 10° SSE
Cosmos 1805 4.4 20:28:02 10° SSW 20:31:49 46° W 20:35:38 10° N
CZ-4B DEB 2.8 20:31:56 55° E 20:32:11 57° ENE 20:35:23 10° N
Cosmos 1092 Rocket 3.9 20:27:10 10° N 20:33:21 63° E 20:39:24 10° SSE
Cosmos 1346 3.6 20:31:09 10° NNW 20:34:04 56° W 20:36:08 17° S
ERS-1 Rocket 4.3 20:35:35 21° NE 20:35:35 21° NE 20:38:46 10° NNE
GPS 2-04 Rocket1 3.3 20:33:25 10° WSW 20:36:38 34° S 20:36:40 34° S
Gbstr 26 Del rocket 3.2 20:33:10 10° SW 20:37:31 64° SE 20:39:48 32° ENE
TELKOM 3 4.3 20:36:11 10° NW 20:38:03 38° NW 20:38:03 38° NW
Cosmos 1943 Rocket 3.3 20:34:44 10° N 20:39:18 25° NE 20:39:37 25° ENE
Cosmos 1953 3.9 20:35:40 10° SSW 20:39:22 37° WNW 20:43:05 10° N
Meteor 1-29 3.5 20:38:20 10° N 20:41:47 60° WNW 20:45:13 10° SSW
Cosmos 2369 Rocket 2.3 20:37:43 10° NNW 20:43:18 58° ENE 20:45:20 37° ESE
Cosmos 1943 3.1 20:38:11 10° S 20:43:44 65° ESE 20:49:19 10° NNE
Cosmos 2026 Rocket 4.2 20:39:39 10° N 20:45:27 43° ENE 20:46:56 37° ESE
Cosmos 1634 Rocket 3.9 20:42:21 10° S 20:48:30 65° E 20:54:39 10° NNE
Cosmos 2263 4.4 20:47:07 10° NNW 20:52:44 50° ENE 20:53:42 45° E
Cosmos 2151 3.3 20:48:40 10° N 20:52:06 47° NE 20:52:06 47° NE
Cosmos 1733 3.2 20:50:27 10° S 20:54:19 83° W 20:58:12 10° N
Cosmos 1470 3.1 20:52:26 10° SSW 20:56:17 63° W 21:00:08 10° N
OAO 3 Rocket 4.0 20:52:23 10° WSW 20:56:44 35° SSW 20:57:20 34° S
Cosmos 839 Rocket 4.1 20:54:01 10° NNW 21:01:39 73° ENE 21:03:47 45° SE
ASTEX 1 3.7 20:59:40 10° N 21:04:31 65° W 21:09:21 10° SSW
Cosmos 1674 3.7 21:00:54 10° NNW 21:04:38 46° W 21:06:20 27° SSW
Cosmos 2195 Rocket 4.4 21:01:18 10° N 21:07:39 76° E 21:10:05 40° SSE
Cosmos 1331 Rocket 4.2 21:12:50 10° NNW 21:17:26 57° NNE 21:17:26 57° NNE
CENTAUR R/B 2.7 21:13:19 10° SW 21:19:21 70° NW 21:26:11 10° NNE
ATLAS 5 CENTAUR R/B 4.4 21:18:23 10° W 21:21:51 19° NW 21:25:30 10° N
Meteor 1-16 Rocket 4.0 21:22:42 60° SSW 21:23:42 84° W 21:29:03 10° N
ALOS 3.7 21:20:32 16° SSW 21:23:45 36° W 21:28:04 10° NNW
ISS -0.5 21:26:07 10° W 21:27:25 19° WNW 21:27:25 19° WNW
Meteor 1-11 4.2 21:26:37 10° NNW 21:32:26 82° W 21:32:39 80° SW
SL-24 R/B - RUBIN 2 4.3 21:27:12 10° NNW 21:33:48 78° NE 21:33:48 78° NE
Envisat 4.1 21:42:35 37° N 21:42:35 37° N 21:45:38 10° N
USA 215 4.2 21:53:08 21° NNE 21:57:12 43° NNW 22:03:16 10° W
Cosmos 1943 Rocket 3.7 22:17:55 10° NW 22:21:10 32° NW 22:21:10 32° NW
Cosmos 2369 Rocket 4.3 22:22:56 10° NW 22:26:48 19° W 22:27:10 19° WSW
CZ-3A R/B 4.2 21:54:30 10° SW 22:27:47 82° SE 22:27:53 82° SE
